Pine Ridge, SD

2:15 AM MDT on October 23, 2017 (GMT -0600)
Pine Ridge

Weather History for KIEN - April, 2014

Change the Weather History Date:

Tuesday, April 22, 2014

  Actual Average Record
Temperature  
Mean Temperature 66 °F 47 °F  
Max Temperature 80 °F 62 °F 83 °F (2009)
Min Temperature 52 °F 33 °F 18 °F (2013)
Degree Days  
Heating Degree Days 0 18  
Month to date heating degree days 475 454  
Since 1 July heating degree days 6890 6692  
Cooling Degree Days 1 0  
Month to date cooling degree days 1 0  
Year to date cooling degree days 1 0  
Growing Degree Days 16 (Base 50)    
Moisture  
Dew Point 39 °F    
Average Humidity 56    
Maximum Humidity 86    
Minimum Humidity 25    
Precipitation  
Precipitation 0.18 in 0.07 in 0.79 in (2001)
Month to date precipitation 0.96 1.33  
Year to date precipitation 1.57 2.99  
Sea Level Pressure  
Sea Level Pressure 29.75 in    
Wind  
Wind Speed 22 mph (South)    
Max Wind Speed 36 mph    
Max Gust Speed 45 mph    
Visibility 10 miles    
Events Rain , Thunderstorm    
T = Trace of Precipitation, MM = Missing Value Source: NWS Daily Summary

Daily Weather History Graph

Daily Weather History Graph

Search for Another Location

Airport or City:

Trip Planner

Search our weather history database for the weather conditions in past years. The results will help you decide how hot, cold, wet, or windy it might be!

Date:

Astronomy

Apr. 22, 2014 Rise Set
Actual Time 5:56 AM MDT 7:40 PM MDT
Civil Twilight 5:26 AM MDT 8:11 PM MDT
Nautical Twilight 4:50 AM MDT 8:47 PM MDT
Astronomical Twilight 4:10 AM MDT 9:27 PM MDT
Moon 1:58 AM MDT (4/22) 12:34 PM MDT (4/22)
Length of Visible Light 14h 44m
Length of Day
13h 43m
Last Quarter, 45% of the Moon is Illuminated
Apr 22
Last Quarter
Apr 29
New
May 6
First Quarter
May 14
Full
May 21
Last Quarter

Hourly Weather History & Observations

Time (MDT) Temp. Dew Point Humidity Pressure Visibility Wind Dir Wind Speed Gust Speed Precip Events Conditions
12:52 AM 55.0 °F 25.0 °F 31% 30.03 in 10.0 mi SSE 16.1 mph 27.6 mph N/A   Clear
1:52 AM 54.0 °F 24.1 °F 31% 30.01 in 10.0 mi SSE 18.4 mph 28.8 mph N/A   Clear
2:52 AM 53.1 °F 24.1 °F 32% 29.97 in 10.0 mi SSE 21.9 mph 36.8 mph N/A   Clear
3:52 AM 52.0 °F 25.0 °F 35% 29.94 in 10.0 mi SSE 24.2 mph 39.1 mph N/A   Clear
4:52 AM 53.1 °F 25.0 °F 34% 29.90 in 10.0 mi South 24.2 mph 38.0 mph N/A   Clear
5:52 AM 53.1 °F 26.1 °F 35% 29.88 in 10.0 mi South 27.6 mph 41.4 mph N/A   Clear
6:52 AM 54.0 °F 28.0 °F 37% 29.88 in 10.0 mi South 29.9 mph 40.3 mph N/A   Clear
7:52 AM 55.0 °F 32.0 °F 42% 29.88 in 10.0 mi South 27.6 mph 38.0 mph N/A   Clear
8:52 AM 59.0 °F 35.1 °F 41% 29.86 in 10.0 mi South 26.5 mph 41.4 mph N/A   Clear
9:52 AM 64.9 °F 37.0 °F 36% 29.83 in 10.0 mi South 27.6 mph 39.1 mph N/A   Clear
10:52 AM 68.0 °F 39.9 °F 36% 29.81 in 10.0 mi SSW 23.0 mph 33.4 mph N/A   Clear
11:52 AM 73.0 °F 41.0 °F 31% 29.76 in 10.0 mi SSW 23.0 mph 29.9 mph N/A   Clear
12:52 PM 75.0 °F 42.1 °F 31% 29.71 in 10.0 mi SSW 24.2 mph 31.1 mph N/A   Clear
1:52 PM 75.0 °F 42.1 °F 31% 29.67 in 10.0 mi South 19.6 mph 28.8 mph N/A   Clear
2:52 PM 78.1 °F 42.1 °F 28% 29.63 in 10.0 mi South 18.4 mph - N/A   Clear
3:52 PM 79.0 °F 42.1 °F 27% 29.61 in 10.0 mi SSW 15.0 mph - N/A   Partly Cloudy
4:52 PM 79.0 °F 39.0 °F 24% 29.59 in 10.0 mi SSW 12.7 mph - N/A   Scattered Clouds
5:44 PM 75.9 °F 39.9 °F 27% 29.64 in 10.0 mi South 10.4 mph - N/A Thunderstorm Mostly Cloudy
5:52 PM 75.0 °F 39.9 °F 28% 29.61 in 10.0 mi SW 18.4 mph 27.6 mph N/A Thunderstorm Thunderstorm
6:03 PM 63.0 °F 50.0 °F 63% 29.72 in 2.0 mi WSW 18.4 mph 32.2 mph 0.09 in Rain , Thunderstorm Heavy Thunderstorms and Rain
6:24 PM 61.0 °F 51.1 °F 70% 29.69 in 5.0 mi NNW 9.2 mph - 0.18 in Rain , Thunderstorm Light Thunderstorms and Rain
6:40 PM 60.1 °F 53.1 °F 78% 29.69 in 10.0 mi South 6.9 mph - 0.18 in Thunderstorm Mostly Cloudy
6:50 PM 60.8 °F 53.6 °F 77% 29.69 in 10.0 mi South 5.8 mph - 0.18 in   Scattered Clouds
6:52 PM 60.1 °F 53.1 °F 78% 29.65 in 10.0 mi SSE 8.1 mph - 0.18 in   Scattered Clouds
7:52 PM 57.0 °F 53.1 °F 87% 29.62 in 10.0 mi ESE 10.4 mph - N/A   Partly Cloudy
8:52 PM 62.1 °F 48.0 °F 60% 29.58 in 10.0 mi SE 18.4 mph - N/A   Clear
9:52 PM 62.1 °F 46.9 °F 58% 29.55 in 10.0 mi SE 25.3 mph 38.0 mph N/A   Clear
10:52 PM 63.0 °F 46.0 °F 54% 29.51 in 10.0 mi SSE 25.3 mph 41.4 mph N/A   Clear